Brunswick, GA

7:38 PM EDT on September 29, 2016 (GMT -0400)
Glynco Jetport

Weather History for KBQK - August, 2014

Change the Weather History Date:

Sunday, August 31, 2014

  Actual Average Record
Temperature  
Mean Temperature 84 °F -  
Max Temperature 91 °F 88 °F 99 °F (1948)
Min Temperature 77 °F 72 °F 62 °F (1986)
Cooling Degree Days 19    
Growing Degree Days 34 (Base 50)    
Moisture  
Dew Point 73 °F    
Average Humidity 72    
Maximum Humidity 89    
Minimum Humidity 52    
Precipitation  
Precipitation 0.00 in - - ()
Sea Level Pressure  
Sea Level Pressure 30.13 in    
Wind  
Wind Speed 3 mph (SE)    
Max Wind Speed 13 mph    
Max Gust Speed 17 mph    
Visibility 9 miles    
Events Thunderstorm    
Averages and records for this station are not official NWS values.
T = Trace of Precipitation, MM = Missing Value Source: NWS Daily Summary

Daily Weather History Graph

Daily Weather History Graph

Search for Another Location

Airport or City:

Trip Planner

Search our weather history database for the weather conditions in past years. The results will help you decide how hot, cold, wet, or windy it might be!

Date:

Astronomy

Aug. 31, 2014 Rise Set
Actual Time 7:01 AM EDT 7:50 PM EDT
Civil Twilight 6:36 AM EDT 8:15 PM EDT
Nautical Twilight 6:07 AM EDT 8:44 PM EDT
Astronomical Twilight 5:37 AM EDT 9:14 PM EDT
Moon 12:22 PM EDT (8/31) 11:28 PM EDT (8/31)
Length of Visible Light 13h 38m
Length of Day
12h 49m
Waxing Crescent, 32% of the Moon is Illuminated
Aug 31
Waxing Crescent
Sep 2
First Quarter
Sep 8
Full
Sep 15
Last Quarter
Sep 24
New

Hourly Weather History & Observations

Time (EDT) Temp. Heat Index Dew Point Humidity Pressure Visibility Wind Dir Wind Speed Gust Speed Precip Events Conditions
12:15 AM 78.8 °F - 73.4 °F 83% 30.15 in 10.0 mi Calm Calm - N/A   Scattered Clouds
12:35 AM 78.8 °F - 73.4 °F 83% 30.15 in 10.0 mi Calm Calm - N/A   Mostly Cloudy
12:55 AM 77.0 °F - 73.4 °F 89% 30.15 in 10.0 mi Calm Calm - N/A   Scattered Clouds
1:15 AM 77.0 °F - 73.4 °F 89% 30.15 in 5.0 mi Calm Calm - N/A   Clear
1:35 AM 77.0 °F - 73.4 °F 89% 30.15 in 7.0 mi Calm Calm - N/A   Scattered Clouds
1:55 AM 77.0 °F - 73.4 °F 89% 30.15 in 7.0 mi Calm Calm - N/A   Scattered Clouds
2:15 AM 77.0 °F - 73.4 °F 89% 30.14 in 5.0 mi Calm Calm - N/A   Clear
2:35 AM 77.0 °F - 73.4 °F 89% 30.13 in 3.0 mi Calm Calm - N/A   Clear
2:55 AM 77.0 °F - 73.4 °F 89% 30.13 in 7.0 mi Calm Calm - N/A   Scattered Clouds
3:15 AM 77.0 °F - 73.4 °F 89% 30.13 in 10.0 mi Calm Calm - N/A   Overcast
3:35 AM 77.0 °F - 73.4 °F 89% 30.13 in 10.0 mi Calm Calm - N/A   Mostly Cloudy
3:55 AM 77.0 °F - 73.4 °F 89% 30.13 in 2.5 mi Calm Calm - N/A   Clear
4:15 AM 77.0 °F - 73.4 °F 89% 30.13 in 2.0 mi Calm Calm - N/A   Clear
4:35 AM 77.0 °F - 73.4 °F 89% 30.13 in 7.0 mi SW 4.6 mph - N/A   Clear
4:55 AM 78.8 °F - 75.2 °F 89% 30.13 in 10.0 mi SW 4.6 mph - N/A   Clear
5:15 AM 77.0 °F - 73.4 °F 89% 30.13 in 10.0 mi WSW 5.8 mph - N/A   Clear
5:35 AM 77.0 °F - 71.6 °F 83% 30.13 in 10.0 mi WSW 8.1 mph - N/A   Clear
5:55 AM 77.0 °F - 71.6 °F 83% 30.13 in 10.0 mi WSW 5.8 mph - N/A   Clear
6:15 AM 77.0 °F - 71.6 °F 83% 30.14 in 10.0 mi West 5.8 mph - N/A Thunderstorm Clear
6:35 AM 77.0 °F - 71.6 °F 83% 30.14 in 10.0 mi West 5.8 mph - N/A   Clear
6:55 AM 77.0 °F - 71.6 °F 83% 30.15 in 10.0 mi West 3.5 mph - N/A   Clear
7:15 AM 77.0 °F - 71.6 °F 83% 30.15 in 10.0 mi Calm Calm - N/A   Clear
7:35 AM 77.0 °F - 71.6 °F 83% 30.15 in 10.0 mi Calm Calm - N/A   Clear
7:55 AM 77.0 °F - 71.6 °F 83% 30.15 in 10.0 mi West 4.6 mph - N/A   Clear
8:15 AM 78.8 °F - 71.6 °F 78% 30.16 in 10.0 mi West 4.6 mph - N/A   Clear
8:35 AM 78.8 °F - 71.6 °F 78% 30.16 in 10.0 mi WNW 3.5 mph - N/A   Clear
8:55 AM 80.6 °F 85.4 °F 73.4 °F 79% 30.15 in 10.0 mi NW 4.6 mph - N/A   Clear
9:15 AM 80.6 °F 84.6 °F 71.6 °F 74% 30.16 in 10.0 mi Calm Calm - N/A   Clear
9:35 AM 82.4 °F 87.2 °F 71.6 °F 70% 30.16 in 10.0 mi Calm Calm - N/A   Clear
9:55 AM 84.2 °F 89.6 °F 71.6 °F 66% 30.15 in 10.0 mi WNW 3.5 mph - N/A   Clear
10:15 AM 84.2 °F 89.6 °F 71.6 °F 66% 30.16 in 10.0 mi Calm Calm - N/A   Clear
10:35 AM 86.0 °F 93.4 °F 73.4 °F 66% 30.16 in 10.0 mi North 3.5 mph - N/A   Clear
10:55 AM 87.8 °F 95.6 °F 73.4 °F 62% 30.16 in 10.0 mi Calm Calm - N/A   Scattered Clouds
11:15 AM 87.8 °F 95.6 °F 73.4 °F 62% 30.16 in 10.0 mi North 4.6 mph - N/A   Scattered Clouds
11:35 AM 87.8 °F 95.6 °F 73.4 °F 62% 30.16 in 10.0 mi Calm Calm - N/A   Scattered Clouds
11:55 AM 89.6 °F 98.2 °F 73.4 °F 59% 30.15 in 10.0 mi East 6.9 mph - N/A   Scattered Clouds
12:15 PM 89.6 °F 98.2 °F 73.4 °F 59% 30.14 in 10.0 mi East 4.6 mph - N/A   Scattered Clouds
12:35 PM 89.6 °F 98.2 °F 73.4 °F 59% 30.14 in 10.0 mi ESE 4.6 mph - N/A   Mostly Cloudy
12:55 PM 91.4 °F 100.1 °F 73.4 °F 55% 30.13 in 10.0 mi East 9.2 mph - N/A   Mostly Cloudy
1:15 PM 89.6 °F 96.2 °F 71.6 °F 55% 30.13 in 10.0 mi ENE 9.2 mph - N/A   Scattered Clouds
1:35 PM 89.6 °F 96.2 °F 71.6 °F 55% 30.13 in 10.0 mi East 6.9 mph - N/A   Mostly Cloudy
1:55 PM 91.4 °F 98.4 °F 71.6 °F 52% 30.13 in 10.0 mi ESE 8.1 mph - N/A   Scattered Clouds
2:15 PM 89.6 °F 96.2 °F 71.6 °F 55% 30.12 in 10.0 mi East 8.1 mph - N/A   Scattered Clouds
2:35 PM 89.6 °F 96.2 °F 71.6 °F 55% 30.11 in 10.0 mi SE 8.1 mph - N/A   Scattered Clouds
2:55 PM 89.6 °F 98.2 °F 73.4 °F 59% 30.11 in 10.0 mi ESE 9.2 mph - N/A   Scattered Clouds
3:15 PM 89.6 °F 98.2 °F 73.4 °F 59% 30.11 in 10.0 mi ESE 9.2 mph - N/A   Scattered Clouds
3:35 PM 89.6 °F 98.2 °F 73.4 °F 59% 30.10 in 10.0 mi ESE 9.2 mph - N/A   Scattered Clouds
3:55 PM 89.6 °F 98.2 °F 73.4 °F 59% 30.09 in 10.0 mi ESE 12.7 mph 17.3 mph N/A   Scattered Clouds
4:15 PM 89.6 °F 98.2 °F 73.4 °F 59% 30.09 in 10.0 mi ESE 9.2 mph - N/A   Clear
4:35 PM 89.6 °F 98.2 °F 73.4 °F 59% 30.08 in 10.0 mi SE 11.5 mph - N/A   Clear
4:55 PM 89.6 °F 98.2 °F 73.4 °F 59% 30.08 in 10.0 mi SE 9.2 mph - N/A   Clear
5:15 PM 89.6 °F 98.2 °F 73.4 °F 59% 30.08 in 10.0 mi ESE 8.1 mph - N/A   Clear
5:35 PM 89.6 °F 96.2 °F 71.6 °F 55% 30.07 in 10.0 mi SE 9.2 mph - N/A   Clear
5:55 PM 87.8 °F 93.8 °F 71.6 °F 58% 30.07 in 10.0 mi SE 10.4 mph - N/A   Clear
6:15 PM 87.8 °F 93.8 °F 71.6 °F 58% 30.06 in 10.0 mi SE 8.1 mph - N/A   Clear
6:35 PM 87.8 °F 93.8 °F 71.6 °F 58% 30.06 in 10.0 mi ESE 11.5 mph - N/A   Clear
6:55 PM 87.8 °F 93.8 °F 71.6 °F 58% 30.07 in 10.0 mi SSE 8.1 mph - N/A   Clear
7:15 PM 86.0 °F 91.8 °F 71.6 °F 62% 30.08 in 10.0 mi SE 6.9 mph - N/A   Clear
7:35 PM 86.0 °F 93.4 °F 73.4 °F 66% 30.09 in 10.0 mi SSE 6.9 mph - N/A   Clear
7:55 PM 86.0 °F 93.4 °F 73.4 °F 66% 30.10 in 10.0 mi SE 5.8 mph - N/A   Clear
8:15 PM 84.2 °F 90.9 °F 73.4 °F 70% 30.10 in 10.0 mi SSE 5.8 mph - N/A   Clear
8:35 PM 84.2 °F 90.9 °F 73.4 °F 70% 30.10 in 10.0 mi Calm Calm - N/A Thunderstorm Clear
8:55 PM 84.2 °F 90.9 °F 73.4 °F 70% 30.11 in 10.0 mi SSE 3.5 mph - N/A   Clear
9:15 PM 82.4 °F 88.2 °F 73.4 °F 74% 30.11 in 10.0 mi SSE 3.5 mph - N/A Thunderstorm Clear
9:35 PM 82.4 °F 88.2 °F 73.4 °F 74% 30.12 in 10.0 mi SE 3.5 mph - N/A   Clear
9:55 PM 82.4 °F 88.2 °F 73.4 °F 74% 30.12 in 10.0 mi South 4.6 mph - N/A Thunderstorm Clear
10:15 PM 80.6 °F 85.4 °F 73.4 °F 79% 30.14 in 10.0 mi WNW 6.9 mph - N/A Thunderstorm Mostly Cloudy
10:35 PM 80.6 °F 85.4 °F 73.4 °F 79% 30.14 in 10.0 mi NW 4.6 mph - N/A Thunderstorm Scattered Clouds
10:55 PM 80.6 °F 85.4 °F 73.4 °F 79% 30.15 in 10.0 mi Calm Calm - N/A   Mostly Cloudy
11:15 PM 80.6 °F 84.6 °F 71.6 °F 74% 30.14 in 10.0 mi Calm Calm - N/A   Scattered Clouds
11:35 PM 78.8 °F - 71.6 °F 78% 30.13 in 10.0 mi Calm Calm - N/A   Clear
11:55 PM 77.0 °F - 71.6 °F 83% 30.13 in 10.0 mi Calm Calm - N/A   Clear